When you browse on this site, cookies collect data to enhance your experience and personalize the content and advertising you see.
Visit our Privacy Policy to learn more. By continuing to use the site, you agree to this use of cookies and data.
  • In Spain
  • List of Countries
  • For 7 days
  • Water Temperature
  • Satellite Maps
  • Weather Map
  • Weather Widgets
  • user-avatar
    Login

    Hourly Weather Er-Riyad

    Today, 23 May, Thursday

    Time Temperature Precipitation Wind Pressure Humidity
    00:00 +36°C° 0 mm 2 mps 709 mmHg 17%
    01:00 +35°C° 0 mm 2 mps 709 mmHg 18%
    02:00 +34°C° 0 mm 3 mps 708 mmHg 19%
    03:00 +34°C° 0 mm 3 mps 708 mmHg 20%
    04:00 +33°C° 0 mm 3 mps 708 mmHg 22%
    05:00 +32°C° 0 mm 2 mps 708 mmHg 24%
    06:00 +31°C° 0 mm 2 mps 709 mmHg 26%
    07:00 +33°C° 0 mm 1 mps 709 mmHg 23%
    08:00 +34°C° 0 mm 1 mps 709 mmHg 21%
    09:00 +36°C° 0 mm 1 mps 710 mmHg 18%
    10:00 +38°C° 0 mm 2 mps 709 mmHg 15%
    11:00 +39°C° 0 mm 2 mps 709 mmHg 12%
    12:00 +40°C° 0 mm 3 mps 709 mmHg 10%
    13:00 +40°C° 0 mm 3 mps 709 mmHg 9%
    14:00 +42°C° 0 mm 3 mps 708 mmHg 9%
    15:00 +42°C° 0 mm 4 mps 708 mmHg 8%
    16:00 +42°C° 0 mm 4 mps 708 mmHg 8%
    17:00 +41°C° 0 mm 4 mps 707 mmHg 9%
    18:00 +41°C° 0 mm 4 mps 707 mmHg 9%
    19:00 +40°C° 0 mm 4 mps 707 mmHg 10%
    20:00 +40°C° 0 mm 4 mps 708 mmHg 11%
    21:00 +38°C° 0 mm 4 mps 708 mmHg 12%
    22:00 +37°C° 0 mm 3 mps 708 mmHg 13%
    23:00 +36°C° 0 mm 3 mps 708 mmHg 14%

    Tomorrow, 24 May, Friday

    Time Temperature Precipitation Wind Pressure Humidity
    00:00 +36°C° 0 mm 2 mps 708 mmHg 14%
    01:00 +35°C° 0 mm 2 mps 708 mmHg 15%
    02:00 +34°C° 0 mm 2 mps 707 mmHg 16%
    03:00 +33°C° 0 mm 1 mps 707 mmHg 17%
    04:00 +33°C° 0 mm 1 mps 707 mmHg 18%
    05:00 +32°C° 0 mm 1 mps 708 mmHg 18%
    06:00 +32°C° 0 mm 1 mps 708 mmHg 18%
    07:00 +33°C° 0 mm 1 mps 708 mmHg 17%
    08:00 +35°C° 0 mm 1 mps 709 mmHg 15%
    09:00 +34°C° 0 mm 0 mps 709 mmHg 14%
    10:00 +35°C° 0 mm 0 mps 709 mmHg 13%
    11:00 +39°C° 0 mm 1 mps 709 mmHg 12%
    12:00 +40°C° 0 mm 1 mps 709 mmHg 11%
    13:00 +40°C° 0 mm 1 mps 708 mmHg 10%
    14:00 +41°C° 0 mm 1 mps 708 mmHg 10%
    15:00 +41°C° 0 mm 2 mps 707 mmHg 10%
    16:00 +41°C° 0 mm 2 mps 707 mmHg 10%
    17:00 +41°C° 0 mm 2 mps 707 mmHg 9%
    18:00 +41°C° 0 mm 2 mps 707 mmHg 9%
    19:00 +40°C° 0 mm 2 mps 707 mmHg 10%
    20:00 +39°C° 0 mm 3 mps 708 mmHg 11%
    21:00 +39°C° 0 mm 3 mps 708 mmHg 12%
    22:00 +38°C° 0 mm 3 mps 708 mmHg 12%
    23:00 +37°C° 0 mm 3 mps 708 mmHg 13%

    Day after tomorrow, 25 May, Saturday

    Time Temperature Precipitation Wind Pressure Humidity
    00:00 +37°C° 0 mm 3 mps 708 mmHg 14%
    01:00 +36°C° 0 mm 2 mps 708 mmHg 15%
    02:00 +34°C° 0 mm 1 mps 707 mmHg 16%
    03:00 +31°C° 0 mm 0 mps 707 mmHg 18%
    04:00 +31°C° 0 mm 0 mps 707 mmHg 18%
    05:00 +31°C° 0 mm 0 mps 707 mmHg 18%
    06:00 +31°C° 0 mm 0 mps 708 mmHg 17%
    07:00 +33°C° 0 mm 0 mps 708 mmHg 15%
    08:00 +34°C° 0 mm 0 mps 708 mmHg 13%
    09:00 +36°C° 0 mm 0 mps 709 mmHg 11%
    10:00 +40°C° 0 mm 1 mps 709 mmHg 11%
    11:00 +40°C° 0 mm 1 mps 708 mmHg 10%
    12:00 +41°C° 0 mm 1 mps 708 mmHg 9%
    13:00 +42°C° 0 mm 2 mps 707 mmHg 8%
    14:00 +42°C° 0 mm 2 mps 707 mmHg 8%
    15:00 +43°C° 0 mm 2 mps 706 mmHg 7%
    16:00 +42°C° 0 mm 2 mps 706 mmHg 7%
    17:00 +42°C° 0 mm 2 mps 706 mmHg 7%
    18:00 +42°C° 0 mm 2 mps 706 mmHg 7%
    19:00 +41°C° 0 mm 2 mps 706 mmHg 8%
    20:00 +40°C° 0 mm 2 mps 706 mmHg 8%
    21:00 +40°C° 0 mm 2 mps 707 mmHg 9%
    22:00 +39°C° 0 mm 3 mps 706 mmHg 10%
    23:00 +38°C° 0 mm 4 mps 706 mmHg 11%

    26 May, Sunday

    Time Temperature Precipitation Wind Pressure Humidity
    00:00 +37°C° 0 mm 4 mps 706 mmHg 11%
    01:00 +36°C° 0 mm 4 mps 706 mmHg 13%
    02:00 +35°C° 0 mm 4 mps 706 mmHg 14%
    03:00 +34°C° 0 mm 3 mps 705 mmHg 16%
    04:00 +34°C° 0 mm 3 mps 706 mmHg 17%
    05:00 +34°C° 0 mm 2 mps 706 mmHg 17%
    06:00 +32°C° 0 mm 2 mps 706 mmHg 18%
    07:00 +35°C° 0 mm 2 mps 707 mmHg 16%
    08:00 +36°C° 0 mm 3 mps 707 mmHg 15%
    09:00 +38°C° 0 mm 4 mps 707 mmHg 13%
    10:00 +39°C° 0 mm 3 mps 707 mmHg 12%
    11:00 +40°C° 0 mm 3 mps 707 mmHg 10%
    12:00 +41°C° 0 mm 2 mps 707 mmHg 9%
    13:00 +42°C° 0 mm 2 mps 706 mmHg 8%
    14:00 +42°C° 0 mm 2 mps 706 mmHg 7%
    15:00 +42°C° 0 mm 2 mps 705 mmHg 7%
    16:00 +43°C° 0 mm 3 mps 705 mmHg 7%
    17:00 +43°C° 0 mm 3 mps 705 mmHg 7%
    18:00 +43°C° 0 mm 4 mps 706 mmHg 7%
    19:00 +42°C° 0 mm 5 mps 706 mmHg 8%
    20:00 +41°C° 0 mm 5 mps 706 mmHg 8%
    21:00 +40°C° 0 mm 6 mps 706 mmHg 8%
    22:00 +39°C° 0 mm 5 mps 706 mmHg 9%
    23:00 +37°C° 0 mm 4 mps 706 mmHg 9%

    27 May, Monday

    Time Temperature Precipitation Wind Pressure Humidity
    00:00 +36°C° 0 mm 4 mps 706 mmHg 9%
    01:00 +35°C° 0 mm 3 mps 706 mmHg 11%
    02:00 +35°C° 0 mm 3 mps 705 mmHg 13%
    03:00 +34°C° 0 mm 2 mps 705 mmHg 14%
    04:00 +34°C° 0 mm 2 mps 706 mmHg 15%
    05:00 +34°C° 0 mm 2 mps 706 mmHg 16%
    06:00 +32°C° 0 mm 1 mps 707 mmHg 16%
    07:00 +35°C° 0 mm 2 mps 707 mmHg 15%
    08:00 +37°C° 0 mm 2 mps 707 mmHg 14%
    09:00 +38°C° 0 mm 2 mps 708 mmHg 12%
    10:00 +39°C° 0 mm 2 mps 707 mmHg 11%
    11:00 +40°C° 0 mm 2 mps 707 mmHg 9%
    12:00 +41°C° 0 mm 2 mps 707 mmHg 8%
    13:00 +41°C° 0 mm 2 mps 706 mmHg 7%
    14:00 +42°C° 0 mm 2 mps 706 mmHg 7%
    15:00 +42°C° 0 mm 2 mps 706 mmHg 6%
    16:00 +42°C° 0 mm 2 mps 706 mmHg 6%
    17:00 +43°C° 0 mm 3 mps 706 mmHg 6%
    18:00 +43°C° 0 mm 3 mps 706 mmHg 6%
    19:00 +42°C° 0 mm 3 mps 706 mmHg 7%
    20:00 +40°C° 0 mm 3 mps 707 mmHg 7%
    21:00 +39°C° 0 mm 3 mps 707 mmHg 8%
    22:00 +38°C° 0 mm 2 mps 707 mmHg 9%
    23:00 +38°C° 0 mm 2 mps 706 mmHg 10%

    28 May, Tuesday

    Time Temperature Precipitation Wind Pressure Humidity
    00:00 +36°C° 0 mm 1 mps 706 mmHg 10%
    01:00 +35°C° 0 mm 1 mps 706 mmHg 11%
    02:00 +34°C° 0 mm 1 mps 706 mmHg 12%
    03:00 +31°C° 0 mm 0 mps 705 mmHg 12%
    04:00 +34°C° 0 mm 1 mps 706 mmHg 12%
    05:00 +34°C° 0 mm 1 mps 706 mmHg 11%
    06:00 +35°C° 0 mm 2 mps 706 mmHg 10%
    07:00 +37°C° 0 mm 2 mps 707 mmHg 10%
    08:00 +39°C° 0 mm 2 mps 707 mmHg 9%
    09:00 +42°C° 0 mm 3 mps 707 mmHg 8%
    10:00 +43°C° 0 mm 3 mps 707 mmHg 8%
    11:00 +44°C° 0 mm 3 mps 707 mmHg 7%
    12:00 +44°C° 0 mm 4 mps 707 mmHg 6%
    13:00 +45°C° 0 mm 4 mps 706 mmHg 6%
    14:00 +45°C° 0 mm 4 mps 706 mmHg 6%
    15:00 +45°C° 0 mm 3 mps 706 mmHg 6%
    16:00 +45°C° 0 mm 3 mps 706 mmHg 6%
    17:00 +45°C° 0 mm 3 mps 706 mmHg 6%
    18:00 +44°C° 0 mm 3 mps 706 mmHg 6%
    19:00 +42°C° 0 mm 2 mps 706 mmHg 7%
    20:00 +41°C° 0 mm 2 mps 706 mmHg 8%
    21:00 +40°C° 0 mm 2 mps 706 mmHg 8%
    22:00 +39°C° 0 mm 2 mps 706 mmHg 9%
    23:00 +39°C° 0 mm 2 mps 706 mmHg 9%
    Show more